Suisen

operational
NORAD ID: 47936 Int'l Des: 2021-022 Owner: AXEL/FUKUI Country: J
LEOCIRCULARRETROGRADESSO

About Suisen

Description loading...

Live Position

Loading 3D Globe...

Upcoming Passes

Altitude History

Altitude vs Time

uPlot chart will show altitude changes over time

Two-Line Element Set

1 47936U 21022E 26061.17803916 .00002097 00000-0 17853-3 0 9991
2 47936 97.5574 308.0190 0012172 320.4112 39.6222 14.98802189269871
Epoch: Mar 2, 2026 • Age: 27 hours

Current Status

Altitude 581.1 km
Velocity 7.57 km/s
Sub-Earth Point 20.73°N, 80.3°W
Launch Date Mar 22, 2021
Age 4.9 years
Type other

Technical Details

Classification Payload
Mass 80.00 kg
Dry Mass 80.00 kg
Total Mass 80.00 kg
Length 0.50 m
Diameter 0.50 m
Span 0.50 m
Shape Box
Manufacturer AXEL
Bus Type GRUS
Phase Status In Orbit
Owner/State AXEL/FUKUI/J

Large Constellations

Loading constellations...